Meteor 1-27 Rocket - Orbit

View from above orbital plane
View from above orbital plane
View from above satellite
View from above satellite

Ground track
Ground track

The orbit data is extracted from the following two-line orbital elements,

1 09904U 77024B   13145.11243804  .00000092  00000-0  47500-4 0  7055
2 09904 081.2611 123.6945 0054608 186.8674 222.8773 14.06663162854144
Epoch (UTC): 25 May 2013 02:41:54
Eccentricity: 0.0054608
inclination: 81.2611°
perigee height: 831 km
apogee height: 910 km
right ascension of ascending node: 123.6945°
argument of perigee: 186.8674°
revolutions per day: 14.06663162
mean anomaly at epoch: 222.8773°
orbit number at epoch: 85414

The dashed part of the orbit path shows where the satellite is in the earth's shadow,  

Developed and maintained by Chris Peat, Heavens-Above GmbH. Please read the updated FAQ before sending e-mail. Imprint. DLR